Location: ???????
(56.2167°N, 38.0500°E)
Time: 06:56:36
(UTC+00:00)

Cosmos 1821 Rocket - Pass Details

Date: 19 May 2025
Orbit: 943 x 1004 km, 82.9° (Epoch: 15 June)

Event Time Altitude Azimuth Distance (km) Brightness Sun altitude
Rises 18:40:59 0° 348° (NNW) 3,651 8.3 -6.4°
Reaches altitude 10° 18:43:34 10° 353° (N) 2,695 7.4 -6.6°
Maximum altitude 18:49:38 58° 72° (ENE) 1,097 4.2 -7.2°
Drops below altitude 10° 18:55:36 10° 152° (SSE) 2,660 5.6 -7.6°
Enters shadow 18:55:51 - 152° (SSE) 2,747 5.7 -7.7°
